Wind_Speed
27 29 28 26 24 27 30 33 35 36 38 38 40 44 47 49 49 51 51 47 45 39 43 44 47 42 38 37 37 41 45 46 45 46 52 54 53 51 49 49 48 46 46 47 50 52 53 49 48 48 47 47 47 44
29 28 28 28 30 32 35 38 40 40 42 45 46 48 52 53 52 51 49 47 45 40 44 47 47 38 36 37 41 31 33 37 38 36 36 40 51 57 55 52 52 49 47 48 48 46 46 49 49 51 48 46 45 46
33 33 33 33 35 38 40 40 42 45 47 49 52 54 54 55 55 49 45 41 42 39 38 44 41 37 34 39 30 27 32 32 34 34 34 34 37 41 51 57 57 55 52 50 50 47 50 51 51 52 50 46 45 44
36 37 38 39 41 42 43 45 48 50 52 54 55 55 55 51 49 46 41 41 39 40 35 40 38 34 35 35 28 29 30 35 36 38 39 27 26 29 31 44 56 56 56 55 52 52 53 50 51 51 51 49 47 45
39 40 41 42 44 46 48 49 49 50 52 54 54 52 50 48 46 45 41 39 39 39 35 35 34 32 36 30 28 22 29 33 33 40 34 32 24 30 30 29 34 39 48 54 53 54 53 53 53 53 50 46 44 47
44 45 46 47 46 48 47 49 48 49 51 52 52 49 48 45 43 43 39 38 38 36 33 29 30 32 32 27 21 28 30 36 36 36 31 25 23 32 32 18 14 28 37 51 54 50 53 51 51 49 46 44 47 45
48 48 48 47 47 48 49 50 50 51 53 54 50 47 45 41 41 41 39 36 36 32 31 26 27 31 29 25 27 31 35 35 35 37 37 30 26 29 27 9 16 19 25 35 47 54 56 53 48 46 47 47 43 39
51 51 49 49 50 50 51 52 52 54 56 52 48 46 43 41 40 39 37 34 31 29 29 24 22 23 24 22 24 29 28 31 33 27 25 21 17 20 15 17 26 25 20 25 36 44 46 44 46 46 46 39 37 34
53 51 51 52 51 51 51 52 53 54 52 46 43 43 40 41 39 35 32 27 26 28 23 20 21 18 17 18 20 21 20 25 23 18 31 29 34 13 9 12 14 11 12 22 26 24 23 24 29 34 36 38 34 30
54 54 54 53 52 53 52 52 53 49 44 41 41 41 37 37 34 29 25 24 27 24 19 20 18 16 15 13 14 11 19 26 17 23 31 19 17 10 9 5 10 13 16 6 11 14 22 25 26 23 27 31 31 30
54 53 52 53 53 52 52 50 45 42 40 39 37 35 34 33 31 28 25 26 25 18 17 18 15 15 14 10 12 12 16 21 19 30 27 29 30 30 15 20 20 13 9 11 10 11 26 28 20 21 22 24 25 27
56 55 55 54 52 51 48 43 41 39 37 35 33 30 30 29 27 25 25 25 19 14 15 15 12 14 12 6 10 6 11 14 20 23 24 28 24 31 31 30 23 16 17 20 18 23 23 20 19 15 10 14 17 19
58 56 55 54 49 43 40 39 38 36 36 32 28 25 27 27 23 22 20 18 10 12 12 11 8 11 7 4 6 3 8 10 14 15 18 22 20 26 29 31 30 29 17 21 14 18 24 20 15 14 10 7 5 8
53 52 49 43 37 37 38 37 36 34 31 27 25 24 25 23 20 18 13 9 9 11 10 9 6 5 4 4 3 4 10 9 14 15 12 15 18 23 26 28 31 33 35 37 23 17 19 16 15 13 12 10 9 8
48 41 33 30 33 35 35 34 32 29 25 24 22 22 24 21 20 12 9 9 10 9 8 8 4 5 2 3 3 4 9 11 15 13 12 14 19 20 20 25 26 29 32 31 34 33 32 27 16 25 20 25 19 17
32 26 27 30 31 30 30 27 26 24 22 22 19 23 23 22 16 13 9 11 10 8 7 8 5 9 1 1 2 2 5 7 11 13 14 14 16 15 15 17 20 22 23 25 25 26 26 27 26 23 21 20 16 15
22 26 27 27 25 26 27 26 26 23 21 18 20 24 20 15 12 12 10 13 11 9 10 10 6 9 3 2 3 2 5 6 8 9 10 10 12 12 11 11 15 16 16 17 19 20 19 17 17 15 13 10 8 7
26 25 25 24 24 24 24 24 24 23 20 20 21 21 12 16 15 12 14 13 12 9 12 12 10 11 8 6 7 8 12 10 6 6 5 7 9 10 10 10 11 10 11 12 12 11 13 12 12 10 10 8 4 4
23 23 22 21 22 22 20 20 22 20 21 24 26 17 15 15 14 13 13 12 11 10 15 15 15 15 13 7 13 16 11 9 7 5 4 6 8 8 12 13 11 10 9 9 12 13 10 10 10 10 10 8 7 5
22 22 21 21 19 19 19 19 19 18 19 16 16 15 14 14 12 12 12 12 12 11 18 18 18 14 12 10 9 7 8 8 9 7 7 9 9 7 13 15 12 9 10 12 10 13 12 9 7 6 8 8 7 6
19 19 20 18 18 17 15 16 18 15 10 12 14 12 12 11 11 10 12 13 12 12 21 20 20 20 14 10 10 18 13 9 10 8 4 6 5 7 9 9 10 12 11 14 14 12 10 9 8 7 6 6 9 8
17 17 18 17 15 13 13 16 14 14 11 9 12 12 11 12 11 10 10 12 13 17 23 21 26 20 17 10 13 14 11 8 9 7 5 3 8 6 6 6 8 10 12 12 12 11 11 12 12 12 11 10 9 10
16 16 16 16 14 13 15 16 14 14 12 11 12 11 10 9 9 12 14 14 14 20 23 20 20 22 19 12 7 13 11 7 6 5 3 4 8 9 6 7 8 9 10 10 10 10 10 9 12 13 13 12 11 7
15 15 15 12 12 15 16 16 16 14 11 13 11 10 10 11 12 13 14 13 17 20 22 20 23 23 23 20 16 9 10 8 9 6 9 12 8 5 7 8 8 9 9 12 12 12 11 13 15 13 10 7 6 5
13 13 11 10 9 11 14 13 14 13 12 12 11 9 9 11 13 14 15 15 18 20 22 23 25 25 22 19 20 16 11 8 9 8 11 13 11 9 7 7 7 6 8 11 12 9 8 7 7 8 8 8 8 7
13 11 9 11 14 13 12 9 7 9 10 10 8 8 9 11 14 16 15 18 20 20 21 22 27 24 22 22 20 16 14 11 10 9 9 9 7 5 6 8 6 4 6 7 8 6 4 4 5 6 7 7 6 9
9 11 15 14 12 12 9 8 12 13 10 9 8 8 10 13 15 18 17 19 22 21 19 20 22 22 20 21 20 16 14 12 11 8 6 7 7 4 3 2 5 3 3 4 5 5 4 5 8 9 9 8 8 8
12 15 15 13 12 10 8 10 10 8 9 9 10 13 13 15 17 17 16 18 20 19 19 21 22 23 21 22 20 15 12 11 10 8 8 7 6 5 2 2 2 1 2 3 4 5 5 8 9 9 7 7 10 11
14 12 13 13 11 10 11 10 10 10 9 10 12 13 11 14 15 13 14 16 18 17 18 20 23 27 24 20 19 16 13 13 11 10 10 10 7 4 3 3 4 5 5 5 5 3 5 8 9 7 7 10 12 12
14 12 12 13 12 15 14 11 9 9 9 11 14 14 11 12 15 14 15 13 12 13 14 23 24 26 26 21 20 16 11 11 14 12 12 12 9 5 4 3 3 4 6 5 2 2 4 7 7 7 10 10 9 6
11 12 12 14 15 16 16 10 5 9 11 12 13 14 12 13 14 16 16 15 14 11 18 23 26 26 22 21 19 17 13 14 13 12 9 6 5 3 2 2 2 3 3 2 1 3 6 7 8 9 9 8 9 11
13 12 11 11 10 9 11 9 10 10 11 13 16 16 15 14 14 10 11 14 18 18 18 26 26 25 23 19 18 16 14 14 12 10 7 7 7 5 3 3 3 3 2 1 2 4 6 7 7 6 7 9 10 11
8 9 9 10 10 12 14 15 14 12 13 16 17 17 16 15 14 11 10 13 16 20 26 26 24 23 20 19 17 15 14 14 13 11 8 7 7 5 4 4 5 3 2 1 3 4 5 6 7 8 10 11 11 11
Wind_Direction
290 293 293 293 286 289 298 304 308 310 310 313 316 317 317 317 318 318 316 317 315 315 313 313 311 316 309 307 306 302 296 290 288 281 274 270 268 264 259 255 250 249 249 245 245 246 250 254 255 255 253 251 254 251
289 290 292 292 291 294 299 303 306 306 308 310 313 314 315 315 316 314 313 314 314 314 313 314 314 316 311 310 308 306 307 304 298 299 302 290 272 262 257 255 252 246 245 246 245 245 245 248 250 255 255 254 255 254
291 293 296 297 297 296 297 299 302 305 307 309 310 312 313 314 313 311 312 311 312 311 308 310 313 311 312 314 308 308 315 314 307 308 306 307 301 278 260 251 251 251 246 244 243 243 243 243 247 249 254 255 254 255
288 289 291 291 292 295 296 298 301 304 306 308 311 312 313 311 311 312 310 310 307 310 310 309 313 312 314 312 308 305 307 314 313 304 300 299 298 298 284 262 248 244 244 243 241 241 239 241 243 246 249 251 254 256
286 288 291 293 294 296 296 299 302 305 306 308 310 312 311 311 311 310 308 305 302 306 307 310 311 311 313 311 310 315 325 322 322 325 319 303 299 292 294 283 273 257 250 243 239 239 238 235 240 243 246 250 253 254
285 288 291 293 294 296 297 299 301 305 307 313 313 311 309 309 306 306 306 302 302 303 304 306 307 309 314 307 316 323 327 332 336 329 324 322 304 293 297 311 293 259 244 242 239 239 240 238 237 240 241 244 247 251
282 288 290 292 293 294 296 298 299 304 308 312 312 307 305 305 302 301 303 300 300 298 305 306 307 304 306 313 323 332 336 337 327 323 325 335 319 292 316 257 283 244 243 243 239 236 236 236 232 235 240 243 244 246
282 285 288 292 293 293 295 298 301 305 308 310 307 304 304 302 300 299 298 298 297 296 304 303 303 290 302 310 321 335 333 335 339 339 345 349 341 322 311 249 248 269 272 267 252 242 237 236 235 231 232 234 239 243
282 283 286 291 292 295 297 298 300 303 306 304 301 303 302 301 300 298 298 297 289 297 299 300 301 278 296 299 322 330 338 343 7 22 13 11 42 28 332 287 297 309 318 258 255 248 238 218 223 227 228 228 231 237
280 282 284 287 289 294 296 297 299 301 301 300 300 302 301 298 297 298 297 290 294 294 301 300 299 292 310 314 333 325 337 335 8 22 42 37 44 23 353 319 312 310 317 347 267 226 217 206 204 201 209 215 220 232
281 282 283 285 290 292 294 296 297 297 297 298 298 299 300 301 296 289 281 292 289 289 294 300 289 301 316 327 340 325 346 348 26 13 20 20 26 33 32 19 73 37 358 79 71 153 190 204 196 199 200 202 213 232
280 281 283 286 288 290 292 291 291 292 293 293 293 296 301 300 292 284 288 292 278 279 286 294 283 308 314 317 340 339 346 357 18 25 24 21 22 31 23 41 60 65 75 84 79 95 105 121 126 140 156 186 205 221
277 280 282 284 284 283 284 285 286 287 287 286 288 295 300 302 295 286 287 276 258 273 280 278 283 313 318 331 354 5 27 41 14 13 28 23 24 28 31 33 46 49 82 82 106 113 122 126 126 120 120 123 159 220
276 276 273 273 276 279 280 281 281 281 280 280 282 289 293 301 297 279 270 238 249 257 271 250 268 286 288 356 47 67 40 38 25 26 35 33 32 30 39 39 45 57 59 64 89 129 126 128 121 100 136 130 158 168
271 267 268 274 276 277 278 277 276 276 274 274 273 281 289 290 282 260 228 242 246 247 254 222 244 230 300 8 126 34 37 35 33 28 37 53 57 60 56 51 48 48 52 58 71 102 104 105 104 131 127 139 128 125
261 265 271 272 272 273 273 273 272 268 268 266 274 273 275 282 257 226 214 242 246 252 238 207 218 192 192 3 150 51 33 53 52 79 64 65 64 56 52 56 62 56 61 66 67 70 70 79 93 112 116 120 121 116
265 266 265 265 267 268 272 274 272 267 267 264 263 274 273 249 231 202 205 231 227 229 211 197 201 199 181 199 111 38 148 114 55 68 71 74 73 68 63 54 59 63 61 62 70 77 83 81 86 89 91 103 115 115
260 260 259 260 264 267 270 272 272 265 256 259 273 278 249 214 213 199 215 224 221 219 199 187 173 171 144 120 92 124 140 143 108 78 64 70 67 63 64 65 72 70 61 62 71 72 82 93 82 88 91 49 68 119
258 257 258 262 263 266 269 271 268 263 257 254 266 260 208 213 210 202 223 218 216 219 196 181 177 185 158 112 137 125 127 127 114 110 93 67 54 82 76 68 77 91 98 87 86 92 103 96 92 85 81 77 78 86
257 256 258 259 265 263 268 271 264 256 267 254 231 210 205 206 200 207 217 216 215 215 192 181 184 204 159 156 144 198 185 165 146 123 101 84 67 48 74 81 77 88 86 69 94 107 99 93 80 77 81 85 82 75
254 251 252 259 268 267 270 256 253 256 248 221 211 201 201 202 213 213 209 215 216 205 188 183 175 174 148 141 136 143 138 158 145 150 139 98 85 53 52 57 83 93 90 89 92 105 111 109 103 82 70 80 86 77
246 246 255 264 265 259 255 257 252 232 232 222 211 194 191 205 211 204 206 215 222 198 188 185 185 165 155 181 133 132 131 150 157 172 146 101 76 91 82 68 74 74 72 75 80 75 73 77 80 87 91 94 86 82
241 251 260 267 260 249 251 243 229 215 210 203 199 190 195 204 202 202 202 209 208 193 187 187 184 181 165 198 196 155 168 164 159 154 138 104 85 76 83 107 119 110 95 81 77 83 95 101 101 101 102 100 93 73
243 255 266 260 253 253 245 228 208 201 204 194 198 198 203 208 198 198 202 206 195 189 187 181 178 178 184 183 179 182 161 153 156 157 142 110 92 88 106 113 115 118 103 91 88 96 104 106 98 97 92 74 47 31
250 258 256 258 229 195 180 186 198 204 190 197 203 215 214 204 201 191 191 192 186 188 188 185 189 194 194 198 186 188 182 171 171 158 147 139 131 96 65 87 110 123 118 114 115 113 99 91 80 60 38 28 31 30
248 247 218 177 180 174 182 196 191 188 196 206 206 206 204 199 196 191 188 188 187 189 193 197 197 192 189 197 191 183 175 169 180 185 183 172 155 121 106 107 107 151 147 136 108 86 76 62 35 29 27 22 30 37
230 193 179 181 191 198 208 217 204 202 212 207 198 200 196 188 187 187 190 188 187 191 197 197 205 183 189 186 177 175 179 169 180 179 159 158 158 119 84 101 103 122 145 129 86 60 38 25 17 16 17 24 35 20
173 182 187 196 205 214 227 203 205 206 193 198 196 183 185 185 185 188 192 190 189 190 197 198 200 185 189 187 170 177 179 171 173 173 162 139 126 116 104 91 101 139 163 121 76 59 30 17 11 7 11 22 12 5
192 197 201 204 208 218 201 197 194 190 187 183 186 193 185 183 186 191 193 185 180 186 195 194 197 186 188 184 174 174 177 171 170 169 165 158 145 159 165 171 178 170 163 138 107 62 11 4 1 7 9 1 358 353
207 212 217 217 213 198 195 193 190 195 191 187 191 190 183 176 181 182 173 171 173 185 189 190 188 186 186 184 177 177 185 200 190 172 166 157 139 135 168 168 143 144 137 127 106 13 350 345 355 359 356 353 350 7
211 219 210 202 198 196 198 200 210 200 191 188 186 184 178 178 182 176 185 177 180 183 182 179 185 178 176 178 179 186 177 167 175 175 170 170 173 187 199 162 116 127 129 111 350 328 337 349 352 354 358 18 24 24
187 187 186 194 197 180 191 198 181 182 184 186 180 180 175 178 181 186 172 168 178 170 162 159 160 169 173 168 174 176 174 174 177 187 183 202 196 178 161 147 141 136 150 235 322 344 3 3 5 26 30 34 31 25
185 179 173 172 177 183 183 181 184 187 190 190 187 182 176 183 171 170 163 162 163 164 162 163 164 166 170 175 169 166 177 178 179 173 175 181 165 160 156 158 171 172 143 25 6 12 18 42 38 39 37 28 19 10
Height
5876 5873 5871 5868 5866 5864 5861 5859 5856 5853 5849 5846 5843 5838 5833 5828 5823 5818 5813 5808 5803 5799 5792 5786 5781 5776 5769 5764 5759 5754 5748 5742 5737 5732 5729 5726 5726 5727 5729 5733 5736 5738 5743 5749 5751 5754 5757 5762 5766 5768 5773 5776 5780 5787
5867 5865 5863 5861 5858 5856 5853 5850 5847 5843 5840 5836 5833 5828 5823 5817 5812 5808 5803 5797 5791 5787 5781 5775 5770 5766 5759 5754 5749 5741 5736 5729 5722 5719 5715 5709 5706 5706 5709 5713 5716 5722 5726 5731 5737 5742 5745 5747 5750 5750 5756 5763 5766 5771
5859 5857 5855 5852 5850 5847 5844 5841 5837 5833 5830 5825 5822 5817 5812 5806 5801 5796 5791 5786 5782 5777 5772 5765 5760 5756 5750 5742 5738 5734 5727 5721 5715 5709 5703 5697 5691 5686 5686 5690 5695 5702 5707 5713 5717 5727 5728 5732 5736 5737 5740 5747 5751 5758
5850 5848 5846 5843 5840 5837 5834 5830 5827 5823 5819 5815 5810 5805 5800 5794 5789 5784 5780 5776 5771 5767 5764 5756 5751 5747 5741 5733 5730 5726 5720 5714 5705 5697 5691 5687 5681 5675 5673 5669 5673 5682 5685 5693 5702 5707 5712 5719 5722 5725 5728 5734 5739 5745
5839 5837 5835 5832 5829 5826 5823 5819 5816 5812 5808 5804 5799 5793 5787 5782 5778 5773 5769 5764 5759 5757 5754 5748 5742 5738 5732 5726 5723 5720 5714 5706 5696 5688 5682 5676 5673 5665 5663 5660 5663 5664 5670 5674 5683 5688 5695 5703 5707 5711 5719 5725 5729 5731
5828 5826 5824 5821 5818 5815 5811 5808 5805 5801 5796 5791 5786 5781 5775 5771 5766 5762 5759 5754 5749 5746 5744 5741 5735 5729 5723 5718 5716 5712 5706 5697 5688 5680 5674 5670 5666 5658 5655 5655 5654 5650 5650 5656 5661 5672 5681 5688 5695 5701 5707 5713 5716 5721
5816 5814 5812 5809 5806 5803 5799 5796 5793 5788 5784 5779 5774 5768 5763 5759 5754 5750 5748 5744 5740 5738 5735 5734 5728 5720 5715 5713 5708 5703 5696 5690 5684 5677 5670 5664 5659 5652 5649 5649 5644 5641 5641 5644 5648 5655 5662 5672 5685 5691 5696 5700 5706 5713
5802 5801 5798 5796 5793 5790 5787 5784 5780 5775 5771 5766 5761 5756 5751 5747 5743 5739 5736 5733 5731 5729 5727 5725 5722 5716 5712 5710 5706 5701 5695 5690 5683 5675 5668 5662 5656 5650 5645 5640 5638 5636 5636 5637 5639 5641 5650 5662 5670 5676 5682 5692 5698 5705
5788 5786 5784 5782 5779 5777 5773 5770 5766 5761 5757 5753 5748 5744 5740 5736 5732 5729 5727 5725 5723 5723 5719 5717 5714 5711 5710 5707 5703 5699 5695 5689 5682 5674 5668 5659 5651 5650 5645 5642 5639 5637 5634 5631 5632 5636 5643 5652 5657 5665 5675 5683 5691 5698
5772 5770 5769 5767 5765 5762 5759 5755 5751 5748 5744 5740 5736 5733 5730 5726 5722 5722 5719 5717 5715 5714 5712 5709 5707 5705 5705 5702 5700 5698 5694 5687 5682 5677 5670 5663 5658 5654 5648 5643 5640 5636 5634 5630 5625 5630 5638 5646 5652 5660 5667 5678 5687 5692
5756 5755 5754 5752 5750 5748 5745 5741 5738 5735 5732 5729 5726 5723 5720 5716 5715 5712 5712 5712 5709 5708 5706 5704 5702 5702 5701 5699 5697 5695 5692 5688 5683 5678 5672 5669 5662 5657 5653 5647 5641 5636 5629 5634 5630 5628 5632 5640 5649 5658 5668 5676 5683 5688
5741 5739 5738 5736 5735 5733 5730 5728 5725 5723 5720 5718 5716 5714 5711 5708 5706 5706 5705 5705 5703 5703 5702 5700 5700 5699 5699 5697 5696 5694 5692 5689 5685 5681 5677 5673 5668 5662 5654 5649 5647 5641 5638 5637 5636 5640 5643 5648 5653 5663 5668 5673 5679 5685
5723 5722 5721 5720 5719 5718 5716 5715 5712 5710 5709 5708 5707 5705 5703 5701 5699 5699 5699 5698 5698 5698 5699 5697 5698 5698 5698 5696 5695 5693 5692 5690 5688 5685 5681 5677 5673 5669 5664 5660 5654 5648 5643 5636 5642 5647 5652 5657 5662 5666 5670 5675 5679 5684
5705 5705 5704 5704 5705 5705 5704 5702 5700 5699 5699 5698 5698 5697 5696 5694 5693 5693 5693 5693 5694 5694 5694 5693 5695 5697 5696 5695 5694 5694 5693 5692 5690 5687 5684 5681 5679 5676 5672 5668 5664 5658 5655 5653 5651 5652 5659 5665 5668 5670 5673 5680 5685 5689
5689 5688 5688 5691 5693 5693 5692 5691 5689 5689 5689 5688 5689 5689 5688 5688 5689 5689 5688 5690 5691 5692 5691 5692 5693 5696 5695 5695 5695 5695 5695 5693 5691 5689 5688 5685 5684 5682 5680 5677 5674 5671 5667 5664 5664 5664 5666 5669 5672 5676 5681 5686 5689 5693
5675 5676 5679 5681 5681 5681 5682 5681 5681 5681 5680 5681 5682 5680 5680 5682 5684 5684 5685 5686 5688 5689 5689 5691 5692 5694 5695 5695 5694 5694 5694 5694 5694 5692 5691 5690 5689 5687 5685 5683 5681 5681 5680 5679 5678 5676 5677 5679 5682 5686 5690 5693 5696 5698
5664 5667 5670 5671 5671 5672 5673 5673 5673 5673 5673 5674 5674 5673 5674 5677 5679 5680 5682 5682 5684 5686 5687 5689 5691 5693 5694 5694 5694 5694 5694 5695 5695 5695 5694 5693 5693 5691 5691 5690 5687 5688 5687 5686 5687 5687 5688 5689 5691 5693 5696 5698 5700 5703
5657 5659 5660 5661 5662 5663 5663 5664 5664 5665 5666 5666 5666 5666 5669 5672 5673 5676 5677 5679 5681 5683 5685 5687 5690 5692 5693 5693 5693 5693 5694 5696 5696 5697 5697 5695 5695 5695 5694 5693 5692 5692 5692 5692 5691 5692 5694 5695 5695 5696 5697 5698 5700 5702
5649 5651 5653 5653 5655 5655 5656 5656 5656 5658 5659 5659 5660 5662 5664 5666 5669 5672 5674 5676 5678 5681 5683 5685 5688 5690 5691 5692 5694 5695 5696 5697 5698 5699 5699 5698 5697 5697 5698 5697 5696 5696 5697 5697 5695 5694 5695 5697 5699 5699 5699 5701 5703 5704
5643 5644 5646 5647 5647 5648 5649 5650 5650 5651 5652 5652 5654 5657 5659 5662 5665 5668 5670 5672 5675 5678 5681 5684 5686 5688 5689 5691 5693 5694 5696 5697 5699 5700 5700 5700 5698 5697 5698 5698 5697 5699 5700 5700 5698 5698 5699 5700 5700 5700 5701 5703 5704 5705
5637 5638 5639 5640 5641 5642 5644 5644 5645 5647 5648 5648 5651 5654 5657 5659 5662 5666 5668 5670 5673 5675 5678 5682 5685 5686 5688 5689 5692 5693 5695 5697 5699 5701 5701 5701 5701 5700 5699 5701 5701 5700 5700 5700 5700 5701 5703 5703 5702 5701 5704 5706 5706 5708
5631 5633 5634 5635 5636 5638 5640 5640 5642 5644 5645 5646 5648 5651 5655 5657 5660 5662 5665 5667 5670 5672 5676 5679 5683 5685 5688 5689 5691 5693 5696 5698 5700 5702 5702 5703 5703 5704 5703 5703 5702 5702 5701 5703 5702 5702 5702 5703 5704 5704 5706 5708 5707 5706
5626 5628 5629 5630 5632 5634 5636 5636 5638 5640 5642 5645 5647 5650 5653 5655 5658 5660 5663 5665 5667 5670 5674 5678 5682 5684 5688 5689 5691 5694 5697 5698 5700 5702 5704 5703 5705 5704 5706 5707 5710 5709 5707 5709 5708 5706 5707 5708 5708 5708 5710 5712 5713 5713
5622 5624 5625 5626 5628 5629 5630 5632 5635 5638 5641 5643 5647 5649 5651 5653 5655 5658 5660 5662 5665 5669 5673 5677 5680 5684 5688 5691 5693 5694 5697 5700 5701 5703 5705 5705 5706 5707 5708 5709 5710 5710 5711 5709 5709 5710 5713 5714 5713 5714 5716 5715 5713 5713
5620 5622 5622 5622 5623 5625 5627 5630 5634 5637 5639 5642 5644 5647 5649 5651 5653 5655 5658 5661 5664 5668 5672 5676 5679 5683 5687 5690 5693 5695 5697 5700 5702 5705 5708 5709 5709 5710 5710 5712 5713 5714 5714 5715 5716 5716 5714 5714 5714 5714 5715 5715 5713 5713
5615 5617 5619 5620 5623 5626 5628 5631 5633 5635 5638 5640 5642 5644 5647 5649 5651 5654 5657 5660 5664 5667 5671 5674 5677 5681 5686 5689 5692 5695 5697 5699 5701 5704 5707 5709 5710 5712 5713 5713 5713 5715 5715 5715 5715 5716 5716 5716 5716 5716 5715 5714 5713 5710
5612 5614 5617 5620 5623 5626 5628 5630 5632 5634 5636 5638 5640 5643 5645 5647 5650 5653 5655 5658 5662 5666 5669 5672 5675 5680 5684 5688 5691 5694 5697 5700 5703 5705 5706 5708 5709 5709 5710 5712 5712 5714 5714 5714 5714 5715 5717 5716 5715 5713 5711 5711 5712 5712
5611 5613 5617 5620 5622 5624 5626 5628 5630 5633 5635 5638 5640 5641 5643 5646 5649 5651 5653 5657 5661 5665 5668 5672 5676 5679 5684 5689 5691 5695 5698 5700 5703 5705 5706 5707 5708 5710 5710 5711 5712 5713 5714 5715 5715 5716 5716 5715 5715 5714 5713 5713 5712 5710
5611 5614 5617 5619 5621 5623 5625 5627 5630 5633 5635 5637 5638 5641 5644 5646 5648 5650 5652 5656 5660 5664 5667 5671 5675 5680 5684 5688 5691 5695 5698 5700 5704 5705 5707 5709 5711 5713 5713 5714 5715 5716 5716 5717 5717 5718 5717 5716 5715 5715 5714 5713 5711 5709
5610 5612 5614 5617 5619 5621 5624 5627 5630 5631 5633 5635 5637 5640 5643 5645 5647 5650 5653 5656 5660 5664 5667 5671 5675 5680 5685 5689 5693 5695 5697 5699 5702 5706 5709 5710 5712 5713 5714 5716 5715 5715 5715 5717 5718 5719 5718 5717 5716 5715 5714 5712 5711 5709
5608 5610 5612 5614 5616 5619 5622 5626 5628 5630 5632 5634 5637 5640 5642 5645 5647 5650 5653 5656 5660 5663 5666 5670 5675 5681 5685 5690 5692 5695 5697 5699 5703 5706 5708 5710 5712 5713 5714 5714 5715 5715 5716 5718 5719 5719 5718 5717 5715 5714 5713 5712 5710 5709
5606 5608 5611 5613 5616 5620 5622 5625 5626 5629 5631 5634 5636 5639 5643 5645 5647 5650 5653 5656 5660 5663 5667 5671 5675 5680 5685 5689 5692 5696 5698 5700 5703 5706 5708 5711 5712 5712 5713 5714 5715 5717 5718 5719 5719 5719 5717 5716 5714 5713 5712 5711 5710 5709
5607 5609 5611 5613 5615 5617 5620 5623 5625 5628 5630 5633 5636 5639 5642 5645 5648 5651 5654 5656 5660 5663 5667 5672 5677 5681 5685 5690 5693 5695 5699 5701 5704 5705 5707 5710 5710 5711 5713 5715 5717 5718 5718 5718 5718 5718 5716 5715 5714 5713 5713 5712 5711 5710